Temperature
19 19 19 19 19 19 19 19 19 19 19 19 19 19 19 19 19 19 19 19 19 19 19 19 19 19 18 18 18 18 18 18 18 18 18 18 18 18 18 18 18 17 17
20 19 19 19 19 19 19 19 19 19 19 19 19 19 19 19 19 19 19 19 19 19 19 19 19 18 18 18 18 18 18 18 18 18 18 18 18 18 18 17 17 17 17
20 19 19 19 19 19 19 19 19 19 19 19 19 19 19 19 19 19 19 19 19 19 19 19 18 18 18 18 18 18 18 18 18 18 18 18 18 18 17 17 17 17 17
20 19 19 19 19 19 19 19 19 19 19 19 19 19 19 19 19 19 19 19 19 18 18 18 18 18 18 18 18 18 18 18 18 18 18 18 18 17 17 17 17 17 17
20 19 19 19 19 19 19 19 19 19 19 19 19 19 19 19 19 19 19 19 18 18 18 18 18 18 18 18 18 18 18 18 18 18 18 18 18 17 17 17 17 17 17
20 19 19 19 19 19 19 19 19 19 19 19 18 18 18 19 18 18 18 18 18 18 18 18 18 18 18 18 18 18 18 18 18 18 18 18 18 17 17 17 17 17 17
20 19 19 19 19 19 19 19 19 19 19 18 18 18 18 18 18 18 18 18 18 18 18 18 18 18 18 18 18 18 18 18 18 18 18 18 17 17 17 17 17 17 17
20 19 19 19 19 18 18 18 19 18 18 18 18 18 18 18 18 18 18 18 18 18 18 18 18 18 18 18 18 17 17 18 18 18 18 18 18 17 17 17 17 17 17
19 19 19 19 19 18 18 18 18 18 18 18 18 18 18 18 18 18 18 18 18 18 18 18 18 18 18 18 18 18 18 18 18 18 18 18 18 17 17 17 17 17 17
19 19 19 19 19 19 19 18 18 18 18 18 18 18 18 18 18 18 18 18 18 18 18 18 18 18 18 18 18 18 18 18 18 18 18 18 18 18 17 17 17 17 17
19 19 19 19 19 19 18 18 18 18 18 18 18 18 18 18 18 18 18 18 18 18 18 18 18 18 18 18 18 18 18 18 18 18 18 18 18 18 18 18 17 17 17
19 19 19 19 19 19 18 18 18 18 18 18 18 18 18 18 18 18 18 17 18 18 17 17 17 17 18 18 18 17 18 18 18 18 18 18 18 18 18 18 17 17 17
19 19 19 19 19 19 19 18 18 18 18 18 18 18 18 18 18 18 18 18 18 18 17 18 17 17 18 18 18 17 17 17 18 18 18 18 18 18 18 18 17 17 17
19 19 19 19 19 18 18 18 18 18 18 18 18 18 18 18 18 18 17 18 18 17 17 17 18 18 18 18 18 17 17 17 17 18 18 18 18 18 18 18 18 17 17
19 19 19 19 18 18 18 18 18 18 18 18 18 18 18 18 17 17 17 17 17 17 17 17 18 18 18 17 17 17 17 17 17 17 17 18 18 18 18 18 17 17 17
19 19 19 19 18 18 18 18 18 18 18 17 17 17 17 17 17 17 17 17 17 17 17 17 17 17 17 18 17 17 17 17 17 17 17 17 17 17 17 17 17 17 17
19 19 19 19 18 18 18 18 18 18 18 17 17 17 17 17 17 17 17 17 17 17 17 17 17 17 17 17 17 17 17 17 17 17 17 17 17 17 17 17 17 17 17
19 19 19 18 18 18 18 18 18 18 17 17 17 17 17 17 17 17 17 17 17 17 17 17 17 17 17 17 17 17 17 17 17 17 17 17 17 17 17 17 17 17 17
19 19 19 18 18 18 18 18 17 17 17 17 17 17 17 17 17 17 17 17 17 17 17 17 17 17 17 17 17 17 17 17 17 17 17 17 17 17 17 17 17 17 17
19 19 19 19 18 18 18 18 17 17 17 17 17 17 17 17 17 17 17 17 17 17 17 17 17 17 17 17 17 17 17 17 17 17 17 17 17 17 17 17 17 17 17
19 19 19 19 18 18 18 18 17 17 17 17 17 17 17 17 17 17 17 16 17 17 17 17 17 17 17 17 17 17 17 17 17 17 17 17 17 17 17 17 17 17 17
19 19 19 19 18 18 18 17 17 17 17 17 17 17 17 17 17 17 17 16 16 17 17 17 17 17 16 16 16 16 16 17 17 17 17 17 17 17 17 17 17 17 17
19 19 19 19 18 18 18 18 17 17 17 17 17 17 17 17 16 16 16 16 16 16 16 16 16 16 16 16 16 16 16 16 16 17 17 17 17 17 17 17 16 16 16
19 19 19 19 18 18 18 17 17 17 17 17 17 17 17 17 16 16 16 16 16 16 16 16 16 16 16 16 16 16 16 16 16 16 16 16 16 16 16 16 16 16 16
20 19 19 18 18 18 17 17 17 17 17 17 17 17 17 17 16 16 16 16 16 16 16 16 16 16 16 16 16 16 16 16 16 15 16 16 16 16 16 16 16 16 16
20 19 19 18 18 18 17 17 17 17 17 17 17 17 17 17 16 16 16 16 16 16 16 16 16 16 16 16 16 16 16 15 15 15 15 15 15 16 15 15 15 15 15
Wind_Speed
2 3 7 8 8 9 9 10 10 11 11 12 12 12 13 14 14 14 13 13 13 12 12 11 11 11 11 11 11 11 11 11 11 10 10 10 10 10 10 10 10 9 11
4 6 8 8 8 8 9 9 9 10 10 10 11 11 12 12 12 12 12 12 12 11 11 11 10 10 10 10 10 10 10 10 9 9 9 9 9 9 9 9 9 8 11
5 6 8 8 8 8 8 8 8 9 9 10 10 10 10 10 11 10 10 11 11 10 10 9 9 9 9 9 9 9 9 8 8 8 7 6 7 7 8 8 9 10 11
6 6 7 8 8 7 7 8 8 9 9 9 9 9 9 9 9 9 9 10 10 10 9 9 9 9 9 8 8 8 8 8 7 7 5 5 5 7 7 8 9 9 10
5 5 6 8 7 7 7 7 7 7 7 7 8 8 8 8 8 9 8 9 9 9 9 8 8 8 9 8 7 7 7 7 6 5 5 4 4 7 8 8 9 9 10
5 4 5 7 7 6 7 7 6 6 6 6 6 7 7 7 7 8 8 8 8 8 8 8 7 7 8 8 7 7 6 6 5 4 4 4 5 7 8 8 8 9 10
4 3 4 6 6 6 6 5 5 5 4 4 5 6 6 6 6 6 6 7 7 7 7 7 7 7 7 7 7 6 7 7 5 5 5 5 5 7 7 8 9 9 9
4 3 3 5 5 5 5 4 4 4 3 3 4 4 5 5 5 6 6 6 6 6 6 6 6 7 7 6 6 6 6 6 5 5 5 5 6 7 7 8 9 9 9
4 3 2 2 3 4 3 3 3 3 3 2 2 3 4 4 4 4 5 5 5 5 5 6 7 6 6 6 6 6 5 6 4 4 5 5 7 8 8 8 10 10 9
4 3 2 2 2 1 1 2 2 2 2 1 1 2 3 3 3 2 3 4 4 4 5 5 6 6 6 6 6 6 6 5 4 4 5 6 7 8 8 9 10 10 10
2 2 2 2 2 1 1 0 1 1 1 1 1 1 1 0 0 1 2 3 3 4 4 5 5 5 5 6 7 7 5 4 4 4 5 6 8 9 8 9 10 10 10
1 0 1 1 1 1 0 1 1 0 1 1 2 2 1 1 0 0 1 2 3 4 4 4 4 4 3 3 5 6 4 4 4 4 5 7 8 9 9 9 10 11 11
2 0 0 0 0 1 0 1 1 1 1 2 2 2 1 2 1 2 2 2 3 3 3 2 1 2 2 2 3 3 3 3 4 4 5 7 8 9 9 10 10 10 11
2 1 0 0 1 0 0 0 0 0 0 1 2 2 1 1 1 1 1 2 2 2 2 2 1 1 1 2 3 3 3 3 3 4 5 7 8 9 10 10 10 10 11
2 1 1 1 1 1 1 0 1 0 0 0 1 2 1 0 1 1 1 2 2 1 1 1 0 0 0 1 1 2 3 4 4 4 5 7 8 8 9 9 9 10 10
3 2 1 1 1 1 1 1 1 1 1 1 1 1 1 0 0 1 1 1 2 2 1 1 0 1 1 1 1 2 2 3 3 4 4 5 7 7 7 8 7 8 8
3 1 1 2 1 1 1 1 0 0 1 1 0 1 1 1 1 1 1 1 2 2 1 0 1 1 0 0 1 1 1 1 2 2 3 3 3 4 5 6 6 7 7
2 2 1 1 2 1 1 1 0 0 1 0 1 1 2 2 1 1 1 1 1 1 1 1 1 1 1 0 0 1 1 1 1 1 1 1 2 3 3 4 5 6 6
2 2 2 1 2 2 1 1 1 1 1 0 1 1 2 2 1 1 0 1 1 1 1 0 1 1 1 1 0 1 1 0 1 1 1 2 2 2 2 3 4 5 5
2 2 2 1 1 2 2 2 2 2 1 1 1 1 1 1 1 1 0 1 0 1 1 1 1 1 1 0 0 1 1 0 0 0 1 1 1 2 2 2 3 3 5
1 1 1 1 1 2 1 1 0 1 1 1 1 1 2 1 1 1 1 1 1 1 0 1 1 1 1 1 1 1 2 1 1 0 0 0 0 1 2 2 2 3 3
3 2 1 1 1 1 1 1 1 1 0 0 1 2 2 2 1 0 1 0 0 1 1 1 2 1 0 1 1 1 2 3 2 1 0 0 1 1 1 2 2 3 3
4 4 3 2 2 2 1 1 2 2 2 2 2 2 3 2 2 1 1 0 0 1 1 1 1 2 1 0 1 2 2 2 2 2 1 1 1 1 1 1 2 3 3
5 4 3 2 2 1 2 2 3 2 1 0 0 1 2 2 2 2 1 1 1 1 0 0 1 1 2 1 0 0 1 2 1 1 2 2 2 2 2 2 1 2 2
5 4 3 2 1 1 2 3 2 1 1 0 1 2 2 2 2 2 1 1 1 0 0 0 1 1 1 2 1 1 1 1 0 1 2 2 2 2 2 2 1 1 2
4 4 4 3 2 2 2 2 3 2 1 1 1 2 2 2 2 3 2 1 1 0 0 1 1 1 1 2 1 1 2 1 1 1 2 2 2 2 2 2 2 1 2
Wind_Direction
170 168 150 143 136 129 124 119 116 117 119 125 132 140 143 147 149 152 153 154 153 151 150 147 144 142 140 139 136 136 134 131 131 133 133 134 134 134 135 136 134 135 139
148 155 152 145 139 132 128 127 126 124 126 128 131 136 141 146 150 154 155 155 154 153 153 151 148 147 145 142 140 140 139 137 137 137 138 138 138 139 140 140 140 140 142
127 147 153 148 142 135 131 130 131 131 131 130 131 134 138 144 149 152 156 157 156 157 157 155 153 153 151 149 146 145 143 142 143 143 139 138 142 143 145 146 148 146 144
129 137 147 149 144 137 131 127 129 130 130 130 132 135 140 143 147 148 153 157 160 162 162 164 161 159 157 155 153 152 152 153 151 149 140 147 157 155 154 152 152 152 151
113 127 146 146 143 140 139 132 126 127 129 132 135 137 141 146 149 155 158 163 168 170 167 166 168 166 165 164 164 162 161 162 161 151 151 160 170 166 162 161 159 161 160
98 116 146 145 141 135 132 133 133 132 133 138 143 146 147 149 154 160 164 167 170 175 174 173 175 176 177 176 175 172 171 173 161 146 158 170 176 178 176 175 170 170 169
103 111 132 139 136 132 134 134 132 133 135 140 146 152 154 156 159 165 170 174 176 183 184 180 182 185 186 184 185 184 179 176 165 159 166 176 187 185 187 185 179 174 173
108 107 122 134 133 133 137 143 144 141 140 144 147 151 158 166 173 176 179 176 178 183 191 194 194 196 197 194 192 191 186 179 172 172 174 186 195 194 197 188 183 183 184
91 84 66 104 135 143 139 140 145 145 136 129 159 171 168 166 170 186 193 191 193 195 197 202 202 201 204 199 197 194 191 189 174 181 184 192 198 202 202 191 191 193 193
77 70 57 51 61 97 140 156 152 138 122 109 144 163 172 172 172 189 197 196 203 212 212 212 213 211 206 202 200 200 198 198 189 192 197 202 203 207 209 202 199 200 202
79 53 50 44 42 50 76 149 182 165 110 85 62 123 169 81 201 238 223 211 218 222 225 228 229 217 211 206 203 203 202 199 193 203 209 212 209 213 214 211 209 208 209
126 57 56 55 41 45 53 33 357 341 3 33 21 358 16 38 38 268 259 253 262 251 247 245 236 223 216 216 215 209 200 197 205 215 221 219 216 216 219 219 216 213 213
181 172 87 65 46 95 83 43 23 4 6 10 11 10 30 34 18 359 336 312 308 294 291 283 268 244 214 198 203 199 197 202 214 222 226 223 224 224 223 220 220 219 219
146 195 275 60 55 42 137 308 216 89 38 15 354 12 31 43 27 6 352 328 324 314 319 312 310 267 214 199 192 198 205 212 223 230 233 231 232 232 225 222 222 222 221
158 175 178 112 91 51 67 349 56 100 104 43 22 16 31 56 12 358 345 340 328 320 324 319 289 258 234 196 198 201 211 216 226 231 244 242 236 232 225 224 223 222 222
182 186 166 144 126 93 88 68 46 87 112 74 39 4 18 36 11 18 2 349 336 325 301 277 254 243 236 216 236 228 222 217 228 230 241 248 240 233 232 229 226 227 226
182 179 170 157 114 109 107 91 68 78 103 76 358 0 17 24 22 51 29 352 331 335 344 63 61 79 121 191 284 277 237 220 214 214 231 242 252 248 246 240 234 232 232
157 149 156 147 119 121 118 88 62 80 106 60 355 2 13 11 39 73 40 334 331 5 49 93 94 92 49 52 309 294 270 223 239 223 213 231 246 251 250 239 236 231 228
160 148 134 101 101 104 80 63 63 57 47 354 20 2 352 354 19 105 55 303 11 47 41 78 86 115 97 43 9 338 338 188 241 216 206 217 228 238 250 254 243 230 229
153 145 141 108 85 92 83 63 44 32 12 11 24 7 347 336 9 104 47 323 58 71 50 49 67 79 98 34 29 28 17 1 47 209 224 214 225 231 239 248 246 229 224
145 145 157 150 124 107 93 94 157 291 323 358 11 20 7 352 11 68 44 17 53 81 89 105 98 83 54 54 75 25 4 340 3 336 293 113 274 250 231 228 225 229 228
184 188 181 187 158 143 151 190 176 168 184 318 353 22 20 11 1 50 82 293 126 132 70 86 108 94 63 71 110 97 6 345 334 324 299 222 271 262 247 232 220 219 222
197 198 198 201 192 183 158 113 98 76 50 29 16 12 8 10 5 19 44 91 100 142 164 181 153 149 165 51 97 132 142 236 304 325 305 302 299 255 265 243 219 219 216
205 196 188 184 183 171 140 123 131 125 127 234 328 4 359 13 9 1 23 73 90 100 135 222 143 158 156 168 153 90 165 157 177 315 329 336 326 297 290 280 246 214 210
193 186 184 173 175 160 147 149 134 119 150 86 54 35 15 5 8 9 14 54 59 61 39 188 121 141 160 167 163 153 134 102 128 206 284 324 336 321 312 293 263 237 222
180 178 168 167 189 177 160 153 153 155 143 89 41 18 3 355 355 3 12 38 48 36 309 261 189 159 166 160 159 148 153 155 188 199 234 280 301 302 303 283 254 249 239
Height
1504 1504 1504 1505 1506 1507 1507 1508 1508 1508 1509 1510 1512 1513 1515 1516 1518 1520 1521 1522 1524 1526 1527 1528 1529 1530 1531 1533 1534 1535 1536 1537 1538 1539 1540 1541 1541 1542 1543 1543 1544 1545 1546
1504 1505 1505 1506 1507 1508 1509 1509 1510 1510 1511 1512 1513 1514 1516 1517 1519 1520 1522 1523 1524 1526 1527 1528 1529 1531 1532 1533 1534 1535 1536 1538 1539 1540 1540 1541 1542 1543 1543 1544 1544 1545 1546
1505 1506 1507 1508 1508 1509 1510 1511 1511 1512 1512 1513 1514 1515 1517 1518 1520 1521 1522 1523 1525 1526 1527 1529 1530 1531 1532 1533 1534 1535 1537 1538 1539 1540 1541 1542 1542 1543 1544 1544 1545 1546 1546
1507 1507 1508 1509 1510 1510 1511 1512 1512 1513 1514 1514 1515 1516 1518 1519 1520 1521 1522 1524 1525 1526 1527 1528 1530 1531 1532 1533 1535 1536 1537 1538 1539 1540 1541 1542 1543 1543 1544 1545 1545 1546 1547
1508 1509 1510 1510 1511 1512 1512 1513 1513 1514 1515 1515 1516 1517 1518 1519 1520 1521 1522 1523 1525 1526 1527 1528 1529 1531 1532 1533 1535 1536 1537 1538 1539 1540 1541 1542 1543 1543 1544 1544 1545 1546 1547
1510 1510 1511 1512 1512 1512 1513 1514 1514 1515 1516 1516 1517 1518 1519 1519 1520 1521 1522 1523 1524 1526 1527 1528 1529 1530 1532 1533 1534 1536 1537 1538 1539 1540 1541 1541 1542 1543 1544 1544 1545 1546 1547
1512 1512 1512 1513 1514 1514 1515 1515 1516 1516 1516 1517 1518 1518 1519 1520 1521 1521 1522 1523 1524 1525 1527 1528 1529 1530 1531 1533 1534 1535 1536 1537 1538 1539 1540 1541 1542 1543 1543 1544 1545 1545 1546
1513 1514 1514 1514 1515 1515 1516 1517 1517 1517 1517 1517 1518 1519 1519 1520 1521 1522 1522 1523 1524 1525 1526 1527 1528 1529 1531 1532 1533 1535 1536 1537 1538 1539 1540 1541 1541 1542 1543 1544 1544 1545 1546
1516 1516 1516 1516 1516 1517 1517 1517 1517 1517 1518 1517 1518 1519 1520 1520 1521 1522 1523 1523 1524 1525 1526 1527 1528 1529 1530 1531 1533 1534 1535 1536 1537 1538 1539 1540 1541 1542 1542 1543 1544 1545 1545
1517 1517 1517 1517 1518 1518 1518 1518 1518 1518 1518 1518 1518 1519 1520 1520 1521 1522 1523 1524 1524 1525 1526 1527 1528 1529 1530 1531 1532 1533 1535 1536 1537 1538 1539 1539 1540 1541 1542 1542 1543 1544 1545
1518 1519 1519 1519 1519 1519 1519 1519 1519 1519 1519 1518 1519 1519 1520 1521 1521 1522 1523 1523 1524 1525 1526 1526 1527 1528 1529 1530 1531 1533 1534 1534 1536 1537 1538 1539 1539 1540 1541 1541 1542 1543 1543
1519 1519 1520 1520 1520 1520 1520 1520 1520 1520 1520 1519 1520 1520 1520 1521 1522 1522 1523 1523 1524 1524 1525 1525 1526 1527 1528 1529 1530 1531 1532 1533 1534 1535 1536 1537 1538 1538 1539 1540 1541 1541 1542
1520 1520 1521 1521 1521 1520 1520 1520 1520 1520 1520 1520 1520 1520 1521 1521 1522 1522 1523 1523 1523 1524 1524 1525 1525 1526 1527 1528 1529 1530 1531 1532 1532 1534 1535 1536 1536 1537 1538 1538 1539 1540 1541
1521 1521 1521 1521 1521 1521 1521 1521 1521 1521 1521 1520 1521 1521 1521 1521 1522 1522 1522 1523 1523 1523 1523 1524 1524 1525 1526 1527 1528 1529 1529 1530 1531 1532 1533 1534 1535 1535 1536 1537 1538 1538 1539
1521 1521 1522 1522 1522 1522 1521 1521 1521 1521 1521 1521 1521 1521 1521 1521 1522 1522 1522 1522 1522 1522 1523 1523 1523 1524 1525 1525 1526 1527 1528 1529 1529 1530 1531 1532 1533 1534 1534 1535 1536 1537 1537
1521 1522 1522 1522 1522 1522 1522 1522 1522 1521 1521 1522 1522 1522 1522 1522 1521 1521 1521 1521 1522 1522 1522 1522 1523 1523 1523 1524 1524 1525 1526 1527 1528 1529 1530 1530 1531 1532 1533 1534 1534 1535 1535
1522 1522 1522 1523 1523 1523 1522 1522 1522 1522 1522 1522 1522 1522 1521 1521 1521 1521 1520 1520 1521 1521 1521 1521 1522 1522 1522 1522 1523 1524 1524 1525 1526 1527 1528 1529 1530 1530 1531 1532 1532 1533 1533
1522 1523 1523 1523 1523 1523 1523 1522 1522 1522 1522 1522 1522 1521 1521 1521 1520 1520 1520 1520 1520 1520 1520 1520 1520 1521 1521 1521 1522 1522 1523 1524 1525 1526 1527 1527 1528 1529 1529 1530 1530 1531 1531
1523 1523 1523 1523 1523 1523 1523 1523 1522 1522 1522 1521 1521 1521 1521 1520 1520 1519 1519 1518 1519 1519 1519 1519 1519 1519 1520 1520 1520 1521 1521 1522 1523 1524 1525 1526 1526 1527 1528 1529 1529 1529 1530
1523 1523 1523 1523 1523 1523 1523 1523 1522 1522 1521 1521 1521 1520 1520 1520 1519 1518 1518 1518 1518 1518 1518 1518 1518 1519 1519 1519 1519 1520 1520 1521 1522 1523 1523 1524 1525 1525 1526 1527 1527 1528 1528
1523 1523 1523 1523 1523 1522 1522 1522 1521 1521 1521 1520 1520 1520 1520 1519 1519 1518 1517 1517 1517 1517 1517 1517 1517 1517 1518 1518 1519 1519 1520 1520 1521 1521 1522 1522 1523 1524 1524 1525 1525 1525 1526
1522 1523 1523 1523 1522 1522 1521 1521 1520 1520 1520 1520 1520 1519 1519 1519 1518 1517 1517 1516 1516 1516 1516 1516 1516 1516 1517 1517 1518 1518 1519 1520 1519 1520 1520 1521 1521 1522 1522 1523 1523 1523 1523
1521 1522 1522 1522 1522 1522 1521 1520 1520 1520 1519 1519 1519 1519 1519 1518 1518 1517 1516 1516 1515 1515 1515 1515 1516 1516 1516 1517 1517 1518 1518 1518 1518 1519 1519 1519 1520 1520 1520 1520 1521 1521 1521
1520 1521 1521 1521 1521 1521 1521 1520 1520 1519 1519 1519 1519 1519 1518 1518 1517 1516 1515 1515 1515 1515 1515 1515 1515 1515 1515 1515 1516 1517 1517 1517 1517 1517 1517 1517 1518 1518 1518 1518 1518 1518 1519
1518 1519 1520 1521 1521 1521 1521 1521 1520 1520 1519 1519 1519 1518 1518 1517 1516 1516 1515 1514 1514 1514 1514 1514 1514 1514 1514 1514 1515 1515 1515 1516 1516 1516 1515 1515 1515 1516 1515 1515 1515 1516 1516
1517 1518 1519 1520 1520 1521 1520 1520 1520 1520 1520 1519 1518 1518 1517 1517 1516 1515 1515 1514 1514 1513 1513 1513 1513 1513 1513 1513 1513 1513 1514 1514 1514 1514 1513 1513 1513 1513 1513 1513 1513 1513 1513